When you browse on this site, cookies collect data to enhance your experience and personalize the content and advertising you see.
Visit our Privacy Policy to learn more. By continuing to use the site, you agree to this use of cookies and data.
  • In Lithuania
  • List of Countries
  • For 7 days
  • Water Temperature
  • Weather Map
  • Weather Widgets
  • user-avatar
    Login

    Hourly Weather Mayrhofen

    Today, 20 September, Friday

    Time Temperature Precipitation Wind Pressure Humidity
    00:00 +1°C° 0 mm 0 mps 621 mmHg 83%
    01:00 +1°C° 0 mm 0 mps 621 mmHg 81%
    02:00 +1°C° 0 mm 0 mps 621 mmHg 79%
    03:00 +1°C° 0 mm 0 mps 621 mmHg 76%
    04:00 +1°C° 0 mm 0 mps 621 mmHg 74%
    05:00 +2°C° 0 mm 0 mps 621 mmHg 69%
    06:00 +3°C° 0 mm 0 mps 622 mmHg 65%
    07:00 +6°C° 0 mm 1 mps 623 mmHg 62%
    08:00 +8°C° 0 mm 1 mps 624 mmHg 53%
    09:00 +10°C° 0 mm 1 mps 624 mmHg 44%
    10:00 +12°C° 0 mm 1 mps 625 mmHg 34%
    11:00 +13°C° 0 mm 2 mps 625 mmHg 34%
    12:00 +14°C° 0 mm 2 mps 625 mmHg 34%
    13:00 +15°C° 0 mm 2 mps 625 mmHg 34%
    14:00 +14°C° 0 mm 2 mps 625 mmHg 37%
    15:00 +14°C° 0 mm 2 mps 624 mmHg 41%
    16:00 +13°C° 0 mm 2 mps 624 mmHg 45%
    17:00 +11°C° 0 mm 1 mps 623 mmHg 56%
    18:00 +8°C° 0 mm 1 mps 622 mmHg 68%
    19:00 +4°C° 0 mm 0 mps 621 mmHg 80%
    20:00 +4°C° 0 mm 0 mps 621 mmHg 80%
    21:00 +3°C° 0 mm 0 mps 621 mmHg 80%
    22:00 +4°C° 0 mm 1 mps 621 mmHg 80%
    23:00 +4°C° 0 mm 1 mps 621 mmHg 81%

    Tomorrow, 21 September, Saturday

    Time Temperature Precipitation Wind Pressure Humidity
    00:00 +4°C° 0 mm 1 mps 621 mmHg 81%
    01:00 +5°C° 0 mm 1 mps 621 mmHg 82%
    02:00 +5°C° 0 mm 1 mps 621 mmHg 83%
    03:00 +5°C° 0 mm 1 mps 620 mmHg 83%
    04:00 +4°C° 0 mm 2 mps 620 mmHg 84%
    05:00 +4°C° 0 mm 2 mps 620 mmHg 82%
    06:00 +5°C° 0 mm 2 mps 621 mmHg 81%
    07:00 +6°C° 0 mm 2 mps 621 mmHg 79%
    08:00 +8°C° 0 mm 2 mps 622 mmHg 70%
    09:00 +12°C° 0 mm 2 mps 623 mmHg 60%
    10:00 +15°C° 0 mm 1 mps 624 mmHg 50%
    11:00 +16°C° 0 mm 2 mps 624 mmHg 47%
    12:00 +17°C° 0 mm 2 mps 624 mmHg 45%
    13:00 +18°C° 0 mm 2 mps 624 mmHg 42%
    14:00 +17°C° 0 mm 2 mps 623 mmHg 44%
    15:00 +17°C° 0 mm 2 mps 623 mmHg 46%
    16:00 +16°C° 0 mm 2 mps 622 mmHg 47%
    17:00 +14°C° 0 mm 2 mps 621 mmHg 58%
    18:00 +10°C° 0 mm 2 mps 620 mmHg 69%
    19:00 +7°C° 0 mm 2 mps 619 mmHg 80%
    20:00 +5°C° 0 mm 3 mps 619 mmHg 82%
    21:00 +5°C° 0 mm 3 mps 619 mmHg 84%
    22:00 +4°C° 0 mm 3 mps 619 mmHg 87%
    23:00 +4°C° 0 mm 3 mps 618 mmHg 87%

    Day after tomorrow, 22 September, Sunday

    Time Temperature Precipitation Wind Pressure Humidity
    00:00 +4°C° 0 mm 3 mps 618 mmHg 87%
    01:00 +4°C° 0 mm 3 mps 618 mmHg 87%
    02:00 +3°C° 0 mm 3 mps 618 mmHg 86%
    03:00 +4°C° 0 mm 2 mps 617 mmHg 84%
    04:00 +4°C° 0 mm 2 mps 617 mmHg 82%
    05:00 +5°C° 0 mm 2 mps 617 mmHg 81%
    06:00 +5°C° 0 mm 2 mps 617 mmHg 80%
    07:00 +6°C° 0 mm 2 mps 617 mmHg 79%
    08:00 +8°C° 0 mm 2 mps 618 mmHg 72%
    09:00 +12°C° 0 mm 2 mps 619 mmHg 64%
    10:00 +14°C° 0 mm 2 mps 620 mmHg 57%
    11:00 +15°C° 0 mm 2 mps 620 mmHg 56%
    12:00 +17°C° 0 mm 2 mps 620 mmHg 54%
    13:00 +18°C° 0 mm 2 mps 620 mmHg 52%
    14:00 +17°C° 0 mm 2 mps 620 mmHg 55%
    15:00 +16°C° 0 mm 2 mps 619 mmHg 58%
    16:00 +16°C° 0 mm 2 mps 618 mmHg 61%
    17:00 +14°C° 0 mm 2 mps 618 mmHg 70%
    18:00 +12°C° 0 mm 2 mps 617 mmHg 79%
    19:00 +9°C° 0 mm 3 mps 616 mmHg 87%
    20:00 +9°C° 0 mm 3 mps 616 mmHg 89%
    21:00 +8°C° 0 mm 3 mps 616 mmHg 90%
    22:00 +8°C° 0 mm 3 mps 616 mmHg 91%
    23:00 +8°C° 0 mm 3 mps 616 mmHg 91%

    23 September, Monday

    Time Temperature Precipitation Wind Pressure Humidity
    00:00 +8°C° 0 mm 2 mps 616 mmHg 91%
    01:00 +8°C° 0 mm 2 mps 616 mmHg 91%
    02:00 +8°C° 0.1 mm 2 mps 616 mmHg 92%
    03:00 +8°C° 0.1 mm 2 mps 616 mmHg 92%
    04:00 +9°C° 0.1 mm 1 mps 616 mmHg 93%
    05:00 +9°C° 0 mm 1 mps 616 mmHg 93%
    06:00 +9°C° 0 mm 1 mps 616 mmHg 94%
    07:00 +9°C° 0 mm 1 mps 616 mmHg 94%
    08:00 +9°C° 0.8 mm 1 mps 616 mmHg 95%
    09:00 +9°C° 0.8 mm 1 mps 616 mmHg 96%
    10:00 +8°C° 0.8 mm 2 mps 617 mmHg 97%
    11:00 +7°C° 2.5 mm 2 mps 616 mmHg 96%
    12:00 +5°C° 2.5 mm 3 mps 616 mmHg 96%
    13:00 +4°C° 2.5 mm 3 mps 615 mmHg 96%
    14:00 +3°C° 3.4 mm 3 mps 615 mmHg 96%
    15:00 +4°C° 3.4 mm 2 mps 615 mmHg 97%
    16:00 +3°C° 3.4 mm 2 mps 614 mmHg 97%
    17:00 +3°C° 0.7 mm 2 mps 615 mmHg 97%
    18:00 +3°C° 0.7 mm 2 mps 615 mmHg 98%
    19:00 +3°C° 0.7 mm 2 mps 615 mmHg 98%
    20:00 +3°C° 0.3 mm 2 mps 615 mmHg 98%
    21:00 +3°C° 0.3 mm 2 mps 616 mmHg 98%
    22:00 +3°C° 0.3 mm 2 mps 616 mmHg 98%
    23:00 +3°C° 0.1 mm 2 mps 616 mmHg 97%

    24 September, Tuesday

    Time Temperature Precipitation Wind Pressure Humidity
    00:00 +3°C° 0.1 mm 2 mps 616 mmHg 97%
    01:00 +3°C° 0.1 mm 2 mps 616 mmHg 96%
    02:00 +2°C° 0 mm 2 mps 616 mmHg 95%
    03:00 +2°C° 0 mm 2 mps 615 mmHg 94%
    04:00 +2°C° 0 mm 1 mps 615 mmHg 94%
    05:00 +3°C° 0 mm 1 mps 615 mmHg 92%
    06:00 +3°C° 0 mm 1 mps 615 mmHg 91%
    07:00 +3°C° 0 mm 1 mps 616 mmHg 90%
    08:00 +5°C° 0 mm 1 mps 616 mmHg 84%
    09:00 +7°C° 0 mm 1 mps 617 mmHg 79%
    10:00 +9°C° 0 mm 0 mps 617 mmHg 73%
    11:00 +10°C° 0 mm 0 mps 617 mmHg 68%
    12:00 +12°C° 0 mm 1 mps 618 mmHg 64%
    13:00 +13°C° 0 mm 1 mps 618 mmHg 59%
    14:00 +13°C° 0 mm 1 mps 618 mmHg 60%
    15:00 +13°C° 0 mm 1 mps 617 mmHg 60%
    16:00 +13°C° 0 mm 1 mps 617 mmHg 61%
    17:00 +11°C° 0 mm 1 mps 616 mmHg 68%
    18:00 +7°C° 0 mm 0 mps 615 mmHg 75%
    19:00 +5°C° 0 mm 0 mps 615 mmHg 82%
    20:00 +5°C° 0 mm 0 mps 615 mmHg 80%
    21:00 +6°C° 0 mm 1 mps 615 mmHg 79%
    22:00 +6°C° 0 mm 1 mps 615 mmHg 78%
    23:00 +6°C° 0 mm 1 mps 615 mmHg 77%

    25 September, Wednesday

    Time Temperature Precipitation Wind Pressure Humidity
    00:00 +6°C° 0 mm 1 mps 614 mmHg 77%
    01:00 +5°C° 0 mm 1 mps 614 mmHg 76%
    02:00 +6°C° 0 mm 1 mps 614 mmHg 76%
    03:00 +6°C° 0 mm 1 mps 614 mmHg 77%
    04:00 +5°C° 0 mm 0 mps 614 mmHg 77%
    05:00 +7°C° 0.2 mm 1 mps 614 mmHg 79%
    06:00 +7°C° 0.2 mm 1 mps 614 mmHg 82%
    07:00 +7°C° 0.2 mm 1 mps 615 mmHg 84%
    08:00 +8°C° 0.1 mm 1 mps 615 mmHg 80%
    09:00 +10°C° 0.1 mm 1 mps 616 mmHg 75%
    10:00 +10°C° 0.1 mm 0 mps 616 mmHg 71%
    11:00 +11°C° 0.2 mm 1 mps 616 mmHg 73%
    12:00 +11°C° 0.2 mm 1 mps 616 mmHg 75%
    13:00 +10°C° 0.2 mm 1 mps 616 mmHg 77%
    14:00 +10°C° 0.4 mm 1 mps 616 mmHg 80%
    15:00 +10°C° 0.4 mm 1 mps 616 mmHg 83%
    16:00 +9°C° 0.4 mm 1 mps 615 mmHg 86%
    17:00 +9°C° 1.1 mm 1 mps 615 mmHg 89%
    18:00 +8°C° 1.1 mm 1 mps 615 mmHg 92%
    19:00 +7°C° 1.1 mm 1 mps 615 mmHg 95%
    20:00 +7°C° 0.6 mm 1 mps 615 mmHg 95%
    21:00 +6°C° 0.6 mm 1 mps 616 mmHg 95%
    22:00 +6°C° 0.6 mm 1 mps 616 mmHg 95%
    23:00 +5°C° 0 mm 1 mps 615 mmHg 94%
    Show more